DMSP 5D-2 F13 DEB, 40396

Orbit data source: Space-Track

DMSP 5D-2 F13 DEB, 40396 is space debris in SSO originally from a launch on Fri, 24 Mar 1995 UTC launched from the Air Force Western Test Range (AFWTR). Debris objects in space refer to the collection of defunct objects orbiting the Earth. Examples of debris include non-operational satellites, rocket bodies, and fragments generated from explosions, collisions, or faulty payload assembly.

Loading next visibility...
Identifier
40396, 1995-015H
Orbit
SSO
Country
Flag of USUS
Related business
Manufacturer
Unknown
Mission
Spacecraft
Bus & Motor
Unknown
Mass
Unknown
Launch date (UTC)
1995-03-24 (31 years ago)
Launch vehicle
Unknown
Launch site
Air Force Western Test Range (AFWTR)
Object type
Payload
Rocket body
Debris
Shape & HBR
Unknown shape, 0.1 m
Radar Cross Section
Small (<0.1 m²)

Expand to show TLE details & history
Last TLE update: 1 day ago

TLE from 1 day ago
0 DMSP 5D-2 F13 DEB
1 40396U 95015H   26143.95781608  .00000068  00000-0  53019-4 0  9998
2 40396  98.7339 158.0462 0016381  98.2619 262.0416 14.19596581582154
Epoch: 2026-05-23T22:59Z
TLE epoch observation values (Epoch: 2026-05-23T22:59:15.309Z)
Latitude
0.00003°
Longitude
-68.33445°
Altitude
831.284 km
Speed
7.436 km/s
True Right ascension
10h 32m 11s
True Declination
0° 00' 00"
Sunlit
Object was in daylight at epoch
Visualization orbit readout
Latitude
Unknown
Longitude
Unknown
Altitude
Unknown
Speed
Unknown
Apparent Right ascension
Unknown
Apparent Declination
Unknown
Sunlit
N/A
Visualization observer readout
Local Sidereal Time
09:38:21
Azimuth
Unknown
Elevation
Unknown
Doppler factor
Unknown
Orbital elements
Apogee altitude
835.675 km
Perigee altitude
812.08 km
Semi-major axis
7,202.015 km
Eccentricity
0.00164
Inclination
98.7339°
RAAN
158.0462°
Arg. of periapsis
98.2619°
True anomaly
261.85575°
Mean anomaly
262.0416°
Eccentric anomaly
261.94867°
Mean motion
3.55109 °/min
Orbital period
101.38 mins
BSTAR
0.000053019
Loading maneuver chart data...
Computing Atmospheric mass density...

Documentation

Showing up to 5 results
|